ECHOSTAR 16

Last updated on Thu Nov 21 2024 00:02:42 GMT+0000 (Coordinated Universal Time)

1 39008U 12065A 24325.06865076 -.00000280 00000+0 00000+0 0 9997 2 39008 0.0102 311.9439 0001935 288.8529 142.0044 1.00270651 43863
UTC large
Height (km)
Speed (km/s)
/
Latitude / Longitude
Inclination (degrees)
Orbital Period (minutes)
Azimuth
Elevation
Range (km)
Doppler Factor

Next 0 passes for location: London (51.5072 / 0.1276)

Sorry there are no passes over London.